Regional Weather Roundup
Issued by NWS Albany, NY

Home | Current Version | Previous Version | Graphics & Text | Print | Product List | Glossary Off
Versions: 1 2 3 4 5 6 7 8 9 10 11 12 13 14 15 16 17 18 19 20 21 22 23 24 25 26 27 28

000
ASUS41 KALY 220310
RWRALY

NEW YORK STATE HOURLY WEATHER ROUNDUP
NATIONAL WEATHER SERVICE ALBANY NY
1100 PM EDT THU SEP 21 2017

NOTE: "FAIR" INDICATES FEW OR NO CLOUDS BELOW 12,000 FEET WITH NO
SIGNIFICANT WEATHER AND/OR NO OBSTRUCTIONS TO VISIBILITY.

NYZ032-033-038>043-046>054-057>066-NYZ062>081-082-084-220400-
EAST


CITY           SKY/WX    TMP DP  RH WIND       PRES   REMARKS
ALBANY         CLOUDY    68  55  63 N7        30.10R
GLENS FALLS    PTCLDY    59  56  89 N6        30.10S
POUGHKEEPSIE   CLOUDY    68  61  78 N7        30.04S
NEWBURGH       CLEAR     70  63  78 VRB6      30.07S
MONTGOMERY     CLOUDY    63  61  93 CALM      30.06R
WHITE PLAINS   CLOUDY    68  61  78 N6        30.03S
ISLIP          CLOUDY    70  54  56 N12       30.00S
NEW YORK CITY  CLOUDY    73  65  75 NE8       30.01F
CENTRAL PARK   CLOUDY    74  63  68 VRB5      30.05S
$$

NYZ005>009-017-018-044>046-055-056-220400-
CENTRAL


CITY           SKY/WX    TMP DP  RH WIND       PRES   REMARKS
FULTON         CLOUDY    65  60  84 NE5       30.11S
SYRACUSE       CLOUDY    64  62  93 NW3       30.10R
ROME           CLOUDY    64  59  83 CALM      30.11R
ELMIRA         CLOUDY    62  61  96 NW3       30.12S
BINGHAMTON     CLOUDY    65  61  87 N7        30.12S
MONTICELLO     CLOUDY    62  56  80 N6        30.12S
$$

NYZ026>034-041>043-087-220400-
NORTH


CITY           SKY/WX    TMP DP  RH WIND       PRES   REMARKS
WATERTOWN      CLOUDY    59  56  89 NE5       30.12S
FORT DRUM      NOT AVBL
OGDENSBURG     FAIR      55  53  92 CALM      30.14S
MASSENA        CLOUDY    55  53  93 CALM      30.15F
SARANAC LAKE   CLEAR     48  48 100 N3        30.16F
PLATTSBURGH    PTCLDY    61  53  75 NW5       30.13F
$$

NYZ001>004-010>016-019>021-085-220400-
WEST


CITY           SKY/WX    TMP DP  RH WIND       PRES   REMARKS
NIAGARA FALLS  CLEAR     68  60  75 E3        30.12S
BUFFALO        PTCLDY    67  62  84 E6        30.13S
DUNKIRK        CLEAR     62  60  93 CALM      30.12S
JAMESTOWN      CLEAR     68  60  75 NE6       30.17S
WELLSVILLE     CLOUDY    65  60  84 N5        30.19S
ROCHESTER      CLOUDY    64  61  90 CALM      30.14S
PENN YAN       CLOUDY    61  57  87 CALM      30.14S
$$

             KEY
       WCI = WIND CHILL INDEX
       VSB = VISIBILITY
       HX  = HEAT INDEX
$$




USA.gov is the U.S. government's official web portal to all federal, state and local government web resources and services.